Location: Brno
(49.2000°N, 16.6330°E)
Time: 15:20:33
(UTC+01:00)

BREEZE M DEB (TANK) - Visible Passes

Search period start: 28 March 2015 00:00
Search period end: 07 April 2015 01:00
Orbit: 286 x 12148 km, 49.5° (Epoch: 27 March)

Date Brightness Start Highest point End Pass type
(mag) Time Alt. Az. Time Alt. Az. Time Alt. Az.
28 Mar 8.6 02:52:38 10° W 04:34:46 84° SSW 05:18:25 10° SE visible
28 Mar 8.0 18:14:03 10° ESE 18:38:34 21° E 19:43:23 10° NE visible
28 Mar 8.0 21:59:35 10° SSW 22:49:16 72° SE 00:24:44 10° ENE visible
29 Mar 8.7 03:14:39 10° W 04:53:47 87° SSW 05:43:20 10° ESE visible
29 Mar 8.1 18:47:00 10° E 19:05:08 16° E 19:59:19 10° NE visible
29 Mar 7.9 22:25:10 10° SSW 23:10:23 67° SE 00:46:49 10° ENE visible
30 Mar 8.6 02:37:06 10° W 04:11:32 89° SSW 05:07:56 10° ESE visible
30 Mar 7.9 21:51:01 10° S 22:32:26 61° ESE 00:08:26 10° ENE visible
31 Mar 8.5 01:59:58 10° WSW 03:28:12 90° N 04:32:11 10° ESE visible
31 Mar 7.8 21:17:07 10° S 21:55:20 54° ESE 23:29:34 10° ENE visible
01 Apr 8.4 01:23:14 10° WSW 02:44:08 90° N 03:56:03 10° E visible
01 Apr 8.2 05:55:05 10° WNW 07:31:44 59° WSW 08:02:44 10° S visible
01 Apr 7.8 20:43:32 10° S 21:18:58 48° ESE 22:50:12 10° NE visible
02 Apr 8.3 00:46:51 10° WSW 01:59:54 89° S 03:19:32 10° E visible
02 Apr 8.3 05:15:06 10° WNW 06:54:46 66° SW 07:28:32 10° SSE visible
02 Apr 7.8 20:10:18 10° SSE 20:43:12 42° ESE 22:10:15 10° NE visible
03 Apr 8.3 00:10:47 10° WSW 01:16:04 87° SSE 02:42:36 10° E visible
03 Apr 8.3 04:35:32 10° WNW 06:16:49 71° SW 06:53:59 10° SSE visible
03 Apr 7.8 19:37:32 10° SSE 20:07:57 36° E 21:29:39 10° NE visible
03 Apr 8.2 23:35:01 10° SW 00:33:05 84° SSE 02:05:13 10° E visible
04 Apr 8.4 03:56:22 10° WNW 05:37:47 77° SW 06:19:07 10° SE visible
04 Apr 7.9 19:05:26 10° SE 19:33:10 30° E 20:48:15 10° NE visible
04 Apr 8.1 22:59:29 10° SW 23:51:12 80° SSE 01:27:23 10° ENE visible
05 Apr 8.5 03:17:38 10° W 04:57:33 81° SSW 05:43:56 10° SE visible
05 Apr 7.9 18:34:17 10° SE 18:58:46 24° E 20:05:49 10° NE visible
05 Apr 8.0 22:24:13 10° SSW 23:10:29 76° SE 00:49:03 10° ENE visible
06 Apr 8.6 02:39:19 10° W 04:16:00 85° SSW 05:08:24 10° SE visible
06 Apr 7.9 21:49:11 10° SSW 22:30:54 70° SE 00:10:13 10° ENE visible
